Time,TemperatureF,DewpointF,PressureIn,WindDirection,WindDirectionDegrees,WindSpeedMPH,WindSpeedGustMPH,Humidity,HourlyPrecipIn,Conditions,Clouds,dailyrainin,SoftwareType,DateUTC
2013-07-07 00:00:00,67.6,67.0,30.12,NW,314,0.0,2.0,98,0.13,,---,0.99,VWS V14.00,2013-07-07 04:00:00,
2013-07-07 00:01:00,67.6,67.0,30.12,NW,314,0.0,2.0,98,0.13,,---,0.99,VWS V14.00,2013-07-07 04:01:00,
2013-07-07 00:02:00,67.5,66.9,30.12,NW,314,0.0,2.0,98,0.13,,---,0.99,VWS V14.00,2013-07-07 04:02:00,
2013-07-07 00:07:00,67.5,66.9,30.11,NW,314,0.0,2.0,98,0.13,,---,0.99,VWS V14.00,2013-07-07 04:07:00,
2013-07-07 00:12:00,67.5,66.9,30.11,NW,314,0.0,2.0,98,0.07,,---,0.00,VWS V14.00,2013-07-07 04:12:00,
2013-07-07 00:17:00,67.5,66.9,30.11,NW,314,1.0,2.0,98,0.08,,---,0.01,VWS V14.00,2013-07-07 04:17:00,
2013-07-07 00:22:00,67.5,67.2,30.11,NW,314,0.0,2.0,99,0.08,,---,0.01,VWS V14.00,2013-07-07 04:22:00,
2013-07-07 00:27:00,67.5,67.2,30.11,NW,314,0.0,2.0,99,0.08,,---,0.01,VWS V14.00,2013-07-07 04:27:00,
2013-07-07 00:32:00,67.4,67.1,30.12,NW,314,0.0,2.0,99,0.08,,---,0.01,VWS V14.00,2013-07-07 04:32:00,
2013-07-07 00:37:00,67.4,67.1,30.12,NW,314,0.0,2.0,99,0.08,,---,0.01,VWS V14.00,2013-07-07 04:37:00,
2013-07-07 00:42:00,67.4,67.1,30.12,NW,314,0.0,0.0,99,0.02,,---,0.01,VWS V14.00,2013-07-07 04:42:00,
2013-07-07 00:47:00,67.3,67.0,30.12,NW,314,0.0,1.0,99,0.02,,---,0.01,VWS V14.00,2013-07-07 04:47:00,
2013-07-07 00:52:00,67.3,67.0,30.11,NW,314,0.0,1.0,99,0.03,,---,0.02,VWS V14.00,2013-07-07 04:52:00,
2013-07-07 00:57:00,67.3,67.0,30.11,NW,314,0.0,1.0,99,0.03,,---,0.02,VWS V14.00,2013-07-07 04:57:00,
2013-07-07 01:02:00,67.4,67.1,30.11,NW,315,0.0,2.0,99,0.03,,---,0.02,VWS V14.00,2013-07-07 05:02:00,
2013-07-07 01:07:00,67.4,67.1,30.11,NW,316,0.0,2.0,99,0.03,,---,0.02,VWS V14.00,2013-07-07 05:07:00,
2013-07-07 01:12:00,67.4,67.1,30.11,NW,316,0.0,2.0,99,0.02,,---,0.02,VWS V14.00,2013-07-07 05:12:00,
2013-07-07 01:17:00,67.4,67.1,30.11,NW,326,0.0,2.0,99,0.02,,---,0.02,VWS V14.00,2013-07-07 05:17:00,
2013-07-07 01:22:00,67.4,67.1,30.11,NW,325,0.0,2.0,99,0.02,,---,0.02,VWS V14.00,2013-07-07 05:22:00,
2013-07-07 01:27:00,67.4,67.1,30.11,NW,326,0.0,2.0,99,0.02,,---,0.02,VWS V14.00,2013-07-07 05:27:00,
2013-07-07 01:32:00,67.3,67.0,30.11,NNW,333,0.0,2.0,99,0.02,,---,0.02,VWS V14.00,2013-07-07 05:32:00,
2013-07-07 01:37:00,67.3,67.0,30.11,NNW,333,0.0,2.0,99,0.02,,---,0.02,VWS V14.00,2013-07-07 05:37:00,
2013-07-07 01:42:00,67.3,67.0,30.10,NNW,333,0.0,0.0,99,0.01,,---,0.02,VWS V14.00,2013-07-07 05:42:00,
2013-07-07 01:47:00,67.2,66.9,30.10,NNW,333,0.0,0.0,99,0.01,,---,0.02,VWS V14.00,2013-07-07 05:47:00,
2013-07-07 01:52:00,67.2,66.9,30.10,NNW,333,0.0,0.0,99,0.01,,---,0.02,VWS V14.00,2013-07-07 05:52:00,
2013-07-07 01:57:00,67.2,66.9,30.10,NNW,333,0.0,0.0,99,0.01,,---,0.02,VWS V14.00,2013-07-07 05:57:00,
2013-07-07 02:02:00,67.2,66.9,30.10,NNW,333,0.0,0.0,99,0.01,,---,0.02,VWS V14.00,2013-07-07 06:02:00,
2013-07-07 02:07:00,67.2,66.9,30.10,NNW,333,0.0,0.0,99,0.01,,---,0.02,VWS V14.00,2013-07-07 06:07:00,
2013-07-07 02:12:00,67.2,66.9,30.09,NNW,333,0.0,0.0,99,0.00,,---,0.02,VWS V14.00,2013-07-07 06:12:00,
2013-07-07 02:17:00,67.2,66.9,30.09,NNW,332,0.0,2.0,99,0.00,,---,0.02,VWS V14.00,2013-07-07 06:17:00,
2013-07-07 02:22:00,67.2,66.9,30.09,NW,319,0.0,3.0,99,0.00,,---,0.02,VWS V14.00,2013-07-07 06:22:00,
2013-07-07 02:27:00,67.2,66.9,30.09,NW,319,0.0,3.0,99,0.01,,---,0.03,VWS V14.00,2013-07-07 06:27:00,
2013-07-07 02:32:00,67.2,66.9,30.09,NNW,331,0.0,3.0,99,0.01,,---,0.03,VWS V14.00,2013-07-07 06:32:00,
2013-07-07 02:37:00,67.2,66.9,30.08,NNW,330,0.0,3.0,99,0.01,,---,0.03,VWS V14.00,2013-07-07 06:37:00,
2013-07-07 02:42:00,67.2,66.9,30.08,NNW,328,0.0,1.0,99,0.01,,---,0.03,VWS V14.00,2013-07-07 06:42:00,
2013-07-07 02:47:00,67.2,66.9,30.08,NNW,328,0.0,1.0,99,0.01,,---,0.03,VWS V14.00,2013-07-07 06:47:00,
2013-07-07 02:52:00,67.2,66.9,30.08,NNW,328,0.0,1.0,99,0.01,,---,0.03,VWS V14.00,2013-07-07 06:52:00,
2013-07-07 02:57:00,67.1,66.8,30.08,NNW,327,0.0,1.0,99,0.01,,---,0.03,VWS V14.00,2013-07-07 06:57:00,
2013-07-07 03:02:00,67.1,66.8,30.08,NNW,334,0.0,1.0,99,0.01,,---,0.03,VWS V14.00,2013-07-07 07:02:00,
2013-07-07 03:07:00,67.1,66.8,30.07,NNW,338,0.0,1.0,99,0.01,,---,0.03,VWS V14.00,2013-07-07 07:07:00,
2013-07-07 03:12:00,67.1,66.8,30.08,West,265,0.0,4.0,99,0.01,,---,0.03,VWS V14.00,2013-07-07 07:12:00,
2013-07-07 03:17:00,67.1,66.8,30.08,West,266,0.0,4.0,99,0.01,,---,0.03,VWS V14.00,2013-07-07 07:17:00,
2013-07-07 03:22:00,67.0,66.7,30.08,West,272,0.0,4.0,99,0.01,,---,0.03,VWS V14.00,2013-07-07 07:22:00,
2013-07-07 03:27:00,67.0,66.7,30.08,West,279,0.0,4.0,99,0.01,,---,0.03,VWS V14.00,2013-07-07 07:27:00,
2013-07-07 03:32:00,67.0,66.7,30.08,ENE,60,0.0,4.0,99,0.01,,---,0.03,VWS V14.00,2013-07-07 07:32:00,
2013-07-07 03:37:00,66.9,66.6,30.08,ENE,69,0.0,4.0,99,0.01,,---,0.03,VWS V14.00,2013-07-07 07:37:00,
2013-07-07 03:42:00,66.9,66.6,30.08,ENE,69,0.0,1.0,99,0.00,,---,0.03,VWS V14.00,2013-07-07 07:42:00,
2013-07-07 03:47:00,66.9,66.6,30.08,ENE,69,0.0,1.0,99,0.00,,---,0.03,VWS V14.00,2013-07-07 07:47:00,
2013-07-07 03:52:00,66.8,66.5,30.08,East,95,0.0,1.0,99,0.00,,---,0.03,VWS V14.00,2013-07-07 07:52:00,
2013-07-07 03:57:00,66.8,66.5,30.08,East,95,0.0,1.0,99,0.00,,---,0.03,VWS V14.00,2013-07-07 07:57:00,
2013-07-07 04:02:00,66.8,66.5,30.08,East,95,0.0,1.0,99,0.00,,---,0.03,VWS V14.00,2013-07-07 08:02:00,
2013-07-07 04:07:00,66.8,66.5,30.08,East,95,0.0,1.0,99,0.00,,---,0.03,VWS V14.00,2013-07-07 08:07:00,
2013-07-07 04:12:00,66.8,66.5,30.08,East,95,0.0,0.0,99,0.00,,---,0.03,VWS V14.00,2013-07-07 08:12:00,
2013-07-07 04:17:00,66.8,66.5,30.08,East,95,0.0,0.0,99,0.00,,---,0.03,VWS V14.00,2013-07-07 08:17:00,
2013-07-07 04:22:00,66.8,66.5,30.08,East,95,0.0,0.0,99,0.00,,---,0.03,VWS V14.00,2013-07-07 08:22:00,
2013-07-07 04:27:00,66.8,66.5,30.08,East,92,0.0,2.0,99,0.00,,---,0.03,VWS V14.00,2013-07-07 08:27:00,
2013-07-07 04:32:00,66.8,66.5,30.08,East,93,0.0,2.0,99,0.00,,---,0.03,VWS V14.00,2013-07-07 08:32:00,
2013-07-07 04:37:00,66.8,66.8,30.08,East,93,0.0,2.0,100,0.00,,---,0.03,VWS V14.00,2013-07-07 08:37:00,
2013-07-07 04:42:00,66.8,66.8,30.08,East,93,0.0,3.0,100,0.00,,---,0.03,VWS V14.00,2013-07-07 08:42:00,
2013-07-07 04:47:00,66.8,66.8,30.08,East,92,0.0,3.0,100,0.00,,---,0.03,VWS V14.00,2013-07-07 08:47:00,
2013-07-07 04:52:00,66.8,66.8,30.08,SW,236,0.0,3.0,100,0.00,,---,0.03,VWS V14.00,2013-07-07 08:52:00,
2013-07-07 04:57:00,66.8,66.8,30.08,SW,236,0.0,3.0,100,0.00,,---,0.03,VWS V14.00,2013-07-07 08:57:00,
2013-07-07 05:02:00,66.8,66.8,30.07,NW,308,0.0,3.0,100,0.00,,---,0.03,VWS V14.00,2013-07-07 09:02:00,
2013-07-07 05:07:00,66.8,66.8,30.07,NW,307,0.0,3.0,100,0.00,,---,0.03,VWS V14.00,2013-07-07 09:07:00,
2013-07-07 05:12:00,66.8,66.8,30.08,NW,310,3.0,4.0,100,0.00,,---,0.03,VWS V14.00,2013-07-07 09:12:00,
2013-07-07 05:17:00,66.8,66.8,30.08,SW,234,0.0,4.0,100,0.00,,---,0.03,VWS V14.00,2013-07-07 09:17:00,
2013-07-07 05:22:00,66.8,66.8,30.08,NW,321,0.0,4.0,100,0.00,,---,0.03,VWS V14.00,2013-07-07 09:22:00,
2013-07-07 05:27:00,66.8,66.8,30.08,ENE,60,0.0,4.0,100,0.00,,---,0.03,VWS V14.00,2013-07-07 09:27:00,
2013-07-07 05:32:00,66.8,66.8,30.08,ENE,60,0.0,4.0,100,0.00,,---,0.03,VWS V14.00,2013-07-07 09:32:00,
2013-07-07 05:37:00,66.8,66.8,30.08,ENE,60,2.0,4.0,100,0.00,,---,0.03,VWS V14.00,2013-07-07 09:37:00,
2013-07-07 05:42:00,66.8,66.8,30.08,ENE,59,0.0,4.0,100,0.00,,---,0.03,VWS V14.00,2013-07-07 09:42:00,
2013-07-07 05:47:00,66.8,66.5,30.08,ENE,59,0.0,4.0,99,0.00,,---,0.03,VWS V14.00,2013-07-07 09:47:00,
2013-07-07 05:52:00,66.7,66.4,30.08,ENE,59,0.0,4.0,99,0.00,,---,0.03,VWS V14.00,2013-07-07 09:52:00,
2013-07-07 05:57:00,66.6,66.3,30.08,ENE,59,0.0,4.0,99,0.00,,---,0.03,VWS V14.00,2013-07-07 09:57:00,
2013-07-07 06:02:00,66.6,66.3,30.08,ENE,59,1.0,4.0,99,0.00,,---,0.03,VWS V14.00,2013-07-07 10:02:00,
2013-07-07 06:07:00,66.6,66.3,30.08,ENE,59,0.0,4.0,99,0.00,,---,0.03,VWS V14.00,2013-07-07 10:07:00,
2013-07-07 06:12:00,66.6,66.3,30.08,ENE,59,0.0,0.0,99,0.00,,---,0.03,VWS V14.00,2013-07-07 10:12:00,
2013-07-07 06:17:00,66.5,66.2,30.08,ENE,59,0.0,0.0,99,0.00,,---,0.03,VWS V14.00,2013-07-07 10:17:00,
2013-07-07 06:22:00,66.5,66.5,30.08,ENE,59,0.0,0.0,100,0.00,,---,0.03,VWS V14.00,2013-07-07 10:22:00,
2013-07-07 06:27:00,66.5,66.5,30.08,ENE,59,0.0,0.0,100,0.00,,---,0.03,VWS V14.00,2013-07-07 10:27:00,
2013-07-07 06:32:00,66.5,66.5,30.08,ENE,59,0.0,0.0,100,0.00,,---,0.03,VWS V14.00,2013-07-07 10:32:00,
2013-07-07 06:37:00,66.6,66.6,30.08,ENE,59,0.0,0.0,100,0.00,,---,0.03,VWS V14.00,2013-07-07 10:37:00,
2013-07-07 06:42:00,66.5,66.5,30.08,ENE,59,0.0,1.0,100,0.00,,---,0.03,VWS V14.00,2013-07-07 10:42:00,
2013-07-07 06:47:00,66.5,66.5,30.09,NW,320,0.0,3.0,100,0.00,,---,0.03,VWS V14.00,2013-07-07 10:47:00,
2013-07-07 06:52:00,66.5,66.5,30.08,NW,319,0.0,3.0,100,0.00,,---,0.03,VWS V14.00,2013-07-07 10:52:00,
2013-07-07 06:57:00,66.5,66.5,30.09,NW,321,0.0,5.0,100,0.00,,---,0.03,VWS V14.00,2013-07-07 10:57:00,
2013-07-07 07:02:00,66.5,66.5,30.09,NW,321,0.0,5.0,100,0.00,,---,0.03,VWS V14.00,2013-07-07 11:02:00,
2013-07-07 07:07:00,66.5,66.5,30.09,NW,320,0.0,5.0,100,0.00,,---,0.03,VWS V14.00,2013-07-07 11:07:00,
2013-07-07 07:12:00,66.5,66.5,30.10,NW,319,0.0,0.0,100,0.00,,---,0.03,VWS V14.00,2013-07-07 11:12:00,
2013-07-07 07:17:00,66.6,66.6,30.10,NW,320,0.0,0.0,100,0.00,,---,0.03,VWS V14.00,2013-07-07 11:17:00,
2013-07-07 07:21:00,66.6,66.6,30.10,NW,320,0.0,0.0,100,0.00,,---,0.03,VWS V14.00,2013-07-07 11:21:00,
2013-07-07 07:26:00,66.6,66.6,30.10,NW,320,0.0,0.0,100,0.00,,---,0.03,VWS V14.00,2013-07-07 11:26:00,
2013-07-07 07:31:00,66.6,66.6,30.10,NW,320,0.0,0.0,100,0.00,,---,0.03,VWS V14.00,2013-07-07 11:31:00,
2013-07-07 07:36:00,66.6,66.6,30.10,NW,319,0.0,0.0,100,0.00,,---,0.03,VWS V14.00,2013-07-07 11:36:00,
2013-07-07 07:41:00,66.6,66.6,30.11,NW,319,0.0,0.0,100,0.00,,---,0.03,VWS V14.00,2013-07-07 11:41:00,
2013-07-07 07:46:00,66.6,66.6,30.11,NW,320,0.0,0.0,100,0.00,,---,0.03,VWS V14.00,2013-07-07 11:46:00,
2013-07-07 07:51:00,66.5,66.5,30.11,NW,320,0.0,0.0,100,0.00,,---,0.03,VWS V14.00,2013-07-07 11:51:00,
2013-07-07 07:56:00,66.5,66.5,30.11,NW,320,0.0,0.0,100,0.00,,---,0.03,VWS V14.00,2013-07-07 11:56:00,
2013-07-07 08:01:00,66.5,66.5,30.11,NW,320,0.0,0.0,100,0.00,,---,0.03,VWS V14.00,2013-07-07 12:01:00,
2013-07-07 08:06:00,66.5,66.5,30.12,NW,320,0.0,0.0,100,0.00,,---,0.03,VWS V14.00,2013-07-07 12:06:00,
2013-07-07 08:07:00,66.5,66.5,30.12,NW,320,0.0,0.0,100,0.00,,---,0.03,VWS V14.00,2013-07-07 12:07:00,
2013-07-07 08:12:00,66.5,66.5,30.12,NW,319,0.0,0.0,100,0.01,,---,0.04,VWS V14.00,2013-07-07 12:12:00,
2013-07-07 08:16:00,66.5,66.5,30.13,NW,319,0.0,0.0,100,0.01,,---,0.04,VWS V14.00,2013-07-07 12:16:00,
2013-07-07 08:21:00,66.6,66.6,30.13,NW,319,0.0,0.0,100,0.01,,---,0.04,VWS V14.00,2013-07-07 12:21:00,
2013-07-07 08:26:00,66.6,66.6,30.13,NW,320,0.0,0.0,100,0.01,,---,0.04,VWS V14.00,2013-07-07 12:26:00,
2013-07-07 08:31:00,66.6,66.6,30.13,NW,319,0.0,0.0,100,0.01,,---,0.04,VWS V14.00,2013-07-07 12:31:00,
2013-07-07 08:36:00,66.7,66.7,30.13,NW,319,0.0,0.0,100,0.01,,---,0.04,VWS V14.00,2013-07-07 12:36:00,
2013-07-07 08:41:00,66.8,66.8,30.13,NNW,345,0.0,0.0,100,0.01,,---,0.04,VWS V14.00,2013-07-07 12:41:00,
2013-07-07 08:46:00,66.9,66.9,30.13,SW,232,0.0,2.0,100,0.01,,---,0.04,VWS V14.00,2013-07-07 12:46:00,
2013-07-07 08:51:00,66.9,66.9,30.13,SW,232,0.0,2.0,100,0.01,,---,0.04,VWS V14.00,2013-07-07 12:51:00,
2013-07-07 08:56:00,67.0,67.0,30.13,WSW,240,0.0,2.0,100,0.01,,---,0.04,VWS V14.00,2013-07-07 12:56:00,
2013-07-07 09:01:00,67.2,67.2,30.14,WSW,240,0.0,2.0,100,0.01,,---,0.04,VWS V14.00,2013-07-07 13:01:00,
2013-07-07 09:06:00,67.2,67.2,30.14,NW,308,0.0,2.0,100,0.01,,---,0.04,VWS V14.00,2013-07-07 13:06:00,
2013-07-07 09:11:00,67.3,67.3,30.14,NW,308,0.0,0.0,100,0.01,,---,0.04,VWS V14.00,2013-07-07 13:11:00,
2013-07-07 09:16:00,67.5,67.5,30.14,NW,308,0.0,0.0,100,0.01,,---,0.04,VWS V14.00,2013-07-07 13:16:00,
2013-07-07 09:21:00,67.6,67.6,30.14,NW,308,0.0,0.0,100,0.01,,---,0.04,VWS V14.00,2013-07-07 13:21:00,
2013-07-07 09:26:00,67.7,67.7,30.14,NW,306,0.0,1.0,100,0.01,,---,0.04,VWS V14.00,2013-07-07 13:26:00,
2013-07-07 09:31:00,67.6,67.6,30.14,NW,306,0.0,1.0,100,0.01,,---,0.04,VWS V14.00,2013-07-07 13:31:00,
2013-07-07 09:36:00,67.7,67.7,30.14,NW,306,0.0,1.0,100,0.01,,---,0.04,VWS V14.00,2013-07-07 13:36:00,
2013-07-07 09:41:00,68.0,68.0,30.14,NW,307,0.0,0.0,100,0.00,,---,0.04,VWS V14.00,2013-07-07 13:41:00,
2013-07-07 09:46:00,68.2,68.2,30.14,NNW,339,0.0,0.0,100,0.01,,---,0.05,VWS V14.00,2013-07-07 13:46:00,
2013-07-07 09:51:00,68.4,68.4,30.14,NNW,338,0.0,0.0,100,0.01,,---,0.05,VWS V14.00,2013-07-07 13:51:00,
2013-07-07 09:56:00,68.5,68.5,30.14,NNW,338,0.0,1.0,100,0.01,,---,0.05,VWS V14.00,2013-07-07 13:56:00,
2013-07-07 10:01:00,68.7,68.7,30.13,NNW,339,0.0,1.0,100,0.01,,---,0.05,VWS V14.00,2013-07-07 14:01:00,
2013-07-07 10:06:00,68.9,68.9,30.13,NNW,339,0.0,1.0,100,0.01,,---,0.05,VWS V14.00,2013-07-07 14:06:00,
2013-07-07 10:11:00,69.0,69.0,30.14,NNW,339,0.0,0.0,100,0.01,,---,0.05,VWS V14.00,2013-07-07 14:11:00,
2013-07-07 10:16:00,69.1,69.1,30.14,NNW,339,0.0,0.0,100,0.01,,---,0.05,VWS V14.00,2013-07-07 14:16:00,
2013-07-07 10:21:00,69.3,69.3,30.13,NNW,339,0.0,1.0,100,0.01,,---,0.05,VWS V14.00,2013-07-07 14:21:00,
2013-07-07 10:26:00,69.4,69.4,30.13,NNW,339,0.0,1.0,100,0.01,,---,0.05,VWS V14.00,2013-07-07 14:26:00,
2013-07-07 10:31:00,69.6,69.6,30.13,NNW,338,0.0,1.0,100,0.01,,---,0.05,VWS V14.00,2013-07-07 14:31:00,
2013-07-07 10:36:00,69.6,69.6,30.12,NNW,338,0.0,1.0,100,0.01,,---,0.05,VWS V14.00,2013-07-07 14:36:00,
2013-07-07 10:41:00,69.7,69.7,30.13,NNW,339,0.0,0.0,100,0.01,,---,0.05,VWS V14.00,2013-07-07 14:41:00,
2013-07-07 10:46:00,69.9,69.9,30.12,NNW,341,0.0,2.0,100,0.01,,---,0.05,VWS V14.00,2013-07-07 14:46:00,
2013-07-07 10:51:00,69.8,69.8,30.12,NNW,347,0.0,2.0,100,0.01,,---,0.05,VWS V14.00,2013-07-07 14:51:00,
2013-07-07 10:56:00,69.8,69.8,30.12,NNE,17,0.0,2.0,100,0.01,,---,0.05,VWS V14.00,2013-07-07 14:56:00,
2013-07-07 11:01:00,69.7,69.4,30.12,NE,37,0.0,2.0,99,0.01,,---,0.05,VWS V14.00,2013-07-07 15:01:00,
2013-07-07 11:06:00,69.9,69.9,30.12,NE,37,0.0,2.0,100,0.01,,---,0.05,VWS V14.00,2013-07-07 15:06:00,
2013-07-07 11:11:00,70.2,70.2,30.12,NE,37,0.0,0.0,100,0.00,,---,0.05,VWS V14.00,2013-07-07 15:11:00,
2013-07-07 11:16:00,70.3,70.0,30.13,NE,37,0.0,1.0,99,0.00,,---,0.05,VWS V14.00,2013-07-07 15:16:00,
2013-07-07 11:21:00,70.1,69.8,30.13,NE,37,0.0,1.0,99,0.00,,---,0.05,VWS V14.00,2013-07-07 15:21:00,
2013-07-07 11:26:00,70.0,69.7,30.13,NE,38,0.0,1.0,99,0.00,,---,0.05,VWS V14.00,2013-07-07 15:26:00,
2013-07-07 11:31:00,70.2,69.9,30.13,East,83,0.0,1.0,99,0.00,,---,0.05,VWS V14.00,2013-07-07 15:31:00,
2013-07-07 11:36:00,70.5,70.2,30.13,East,83,0.0,1.0,99,0.00,,---,0.05,VWS V14.00,2013-07-07 15:36:00,
2013-07-07 11:41:00,70.7,70.4,30.13,East,83,0.0,0.0,99,0.00,,---,0.05,VWS V14.00,2013-07-07 15:41:00,
2013-07-07 11:46:00,70.8,70.2,30.13,East,83,0.0,0.0,98,0.00,,---,0.05,VWS V14.00,2013-07-07 15:46:00,
2013-07-07 11:51:00,71.0,70.4,30.13,East,83,0.0,0.0,98,0.00,,---,0.05,VWS V14.00,2013-07-07 15:51:00,
2013-07-07 11:56:00,71.0,70.4,30.13,East,83,0.0,0.0,98,0.00,,---,0.05,VWS V14.00,2013-07-07 15:56:00,
2013-07-07 12:01:00,71.2,70.6,30.13,East,83,0.0,0.0,98,0.00,,---,0.05,VWS V14.00,2013-07-07 16:01:00,
2013-07-07 12:06:00,71.2,70.3,30.13,East,83,0.0,0.0,97,0.00,,---,0.05,VWS V14.00,2013-07-07 16:06:00,
2013-07-07 12:11:00,71.3,70.4,30.14,East,92,0.0,1.0,97,0.00,,---,0.05,VWS V14.00,2013-07-07 16:11:00,
2013-07-07 12:16:00,71.4,70.5,30.14,East,95,0.0,1.0,97,0.00,,---,0.05,VWS V14.00,2013-07-07 16:16:00,
2013-07-07 12:21:00,71.6,70.4,30.13,SE,136,0.0,1.0,96,0.00,,---,0.05,VWS V14.00,2013-07-07 16:21:00,
2013-07-07 12:26:00,71.8,70.6,30.13,South,188,0.0,2.0,96,0.00,,---,0.05,VWS V14.00,2013-07-07 16:26:00,
2013-07-07 12:31:00,72.0,70.5,30.13,SSE,150,0.0,3.0,95,0.00,,---,0.05,VWS V14.00,2013-07-07 16:31:00,
2013-07-07 12:36:00,72.4,70.9,30.13,SSW,194,0.0,3.0,95,0.00,,---,0.05,VWS V14.00,2013-07-07 16:36:00,
2013-07-07 12:41:00,72.6,70.8,30.13,SSW,194,0.0,1.0,94,0.00,,---,0.05,VWS V14.00,2013-07-07 16:41:00,
2013-07-07 12:46:00,72.8,71.0,30.13,SSW,194,0.0,1.0,94,0.01,,---,0.06,VWS V14.00,2013-07-07 16:46:00,
2013-07-07 12:51:00,73.0,71.5,30.12,SSW,194,0.0,1.0,95,0.01,,---,0.06,VWS V14.00,2013-07-07 16:51:00,
2013-07-07 12:56:00,72.8,70.3,30.12,SSE,155,0.0,3.0,92,0.01,,---,0.06,VWS V14.00,2013-07-07 16:56:00,
2013-07-07 13:01:00,72.9,70.4,30.12,South,177,0.0,3.0,92,0.01,,---,0.06,VWS V14.00,2013-07-07 17:01:00,
2013-07-07 13:06:00,73.2,70.4,30.12,SSE,147,0.0,5.0,91,0.01,,---,0.06,VWS V14.00,2013-07-07 17:06:00,
2013-07-07 13:11:00,73.4,70.3,30.12,South,176,1.0,4.0,90,0.01,,---,0.06,VWS V14.00,2013-07-07 17:11:00,
2013-07-07 13:16:00,73.5,70.1,30.12,SSE,164,0.0,5.0,89,0.01,,---,0.06,VWS V14.00,2013-07-07 17:16:00,
2013-07-07 13:21:00,73.8,70.4,30.12,SSE,150,0.0,5.0,89,0.01,,---,0.06,VWS V14.00,2013-07-07 17:21:00,
2013-07-07 13:26:00,73.9,69.8,30.11,South,188,0.0,5.0,87,0.01,,---,0.06,VWS V14.00,2013-07-07 17:26:00,
2013-07-07 13:31:00,74.1,70.0,30.11,South,187,0.0,5.0,87,0.01,,---,0.06,VWS V14.00,2013-07-07 17:31:00,
2013-07-07 13:36:00,74.3,69.8,30.11,South,188,0.0,5.0,86,0.01,,---,0.06,VWS V14.00,2013-07-07 17:36:00,
2013-07-07 13:41:00,74.3,69.2,30.11,West,280,0.0,2.0,84,0.01,,---,0.06,VWS V14.00,2013-07-07 17:41:00,
2013-07-07 13:46:00,74.6,70.1,30.10,West,268,0.0,2.0,86,0.01,,---,0.06,VWS V14.00,2013-07-07 17:46:00,
2013-07-07 13:51:00,74.8,70.0,30.11,SW,217,0.0,5.0,85,0.01,,---,0.06,VWS V14.00,2013-07-07 17:51:00,
2013-07-07 13:56:00,75.0,70.2,30.10,SSW,213,0.0,5.0,85,0.01,,---,0.06,VWS V14.00,2013-07-07 17:56:00,
2013-07-07 14:01:00,75.2,70.4,30.10,SE,133,1.0,5.0,85,0.01,,---,0.06,VWS V14.00,2013-07-07 18:01:00,
2013-07-07 14:06:00,75.1,69.6,30.10,WSW,244,0.0,5.0,83,0.01,,---,0.06,VWS V14.00,2013-07-07 18:06:00,
2013-07-07 14:11:00,75.0,69.1,30.10,SSE,152,0.0,7.0,82,0.00,,---,0.06,VWS V14.00,2013-07-07 18:11:00,
2013-07-07 14:16:00,75.1,70.3,30.10,SSE,152,1.0,7.0,85,0.00,,---,0.06,VWS V14.00,2013-07-07 18:16:00,
2013-07-07 14:21:00,75.1,70.3,30.10,South,178,0.0,7.0,85,0.00,,---,0.06,VWS V14.00,2013-07-07 18:21:00,
2013-07-07 14:26:00,75.3,70.5,30.10,North,10,0.0,7.0,85,0.00,,---,0.06,VWS V14.00,2013-07-07 18:26:00,
2013-07-07 14:31:00,75.5,70.7,30.10,SSW,199,6.0,7.0,85,0.00,,---,0.06,VWS V14.00,2013-07-07 18:31:00,
2013-07-07 14:36:00,75.6,70.4,30.10,SSW,198,1.0,7.0,84,0.00,,---,0.06,VWS V14.00,2013-07-07 18:36:00,
2013-07-07 14:41:00,75.9,70.0,30.09,SSW,209,0.0,2.0,82,0.00,,---,0.06,VWS V14.00,2013-07-07 18:41:00,
2013-07-07 14:46:00,76.2,69.6,30.09,West,260,0.0,4.0,80,0.00,,---,0.06,VWS V14.00,2013-07-07 18:46:00,
2013-07-07 14:51:00,76.3,69.3,30.09,South,175,0.0,4.0,79,0.00,,---,0.06,VWS V14.00,2013-07-07 18:51:00,
2013-07-07 14:56:00,76.3,70.1,30.09,South,178,0.0,5.0,81,0.00,,---,0.06,VWS V14.00,2013-07-07 18:56:00,
2013-07-07 15:01:00,76.2,69.6,30.09,SSE,149,0.0,5.0,80,0.00,,---,0.06,VWS V14.00,2013-07-07 19:01:00,
2013-07-07 15:06:00,76.0,69.4,30.09,South,173,0.0,5.0,80,0.00,,---,0.06,VWS V14.00,2013-07-07 19:06:00,
2013-07-07 15:11:00,75.8,69.9,30.09,SE,126,0.0,1.0,82,0.00,,---,0.06,VWS V14.00,2013-07-07 19:11:00,
2013-07-07 15:16:00,75.5,69.3,30.09,SSE,163,0.0,3.0,81,0.00,,---,0.06,VWS V14.00,2013-07-07 19:16:00,
2013-07-07 15:21:00,75.2,69.3,30.08,SSW,213,0.0,5.0,82,0.00,,---,0.06,VWS V14.00,2013-07-07 19:21:00,
2013-07-07 15:26:00,75.3,70.5,30.08,SSW,213,0.0,5.0,85,0.00,,---,0.06,VWS V14.00,2013-07-07 19:26:00,
2013-07-07 15:31:00,75.6,71.5,30.08,SW,214,0.0,5.0,87,0.00,,---,0.06,VWS V14.00,2013-07-07 19:31:00,
2013-07-07 15:36:00,75.5,70.0,30.09,SW,224,0.0,5.0,83,0.00,,---,0.06,VWS V14.00,2013-07-07 19:36:00,
2013-07-07 15:41:00,75.3,69.8,30.09,SSE,155,0.0,1.0,83,0.00,,---,0.06,VWS V14.00,2013-07-07 19:41:00,
2013-07-07 15:46:00,75.5,70.7,30.09,SE,125,0.0,3.0,85,0.00,,---,0.06,VWS V14.00,2013-07-07 19:46:00,
2013-07-07 15:51:00,75.8,71.0,30.09,SSE,161,0.0,3.0,85,0.00,,---,0.06,VWS V14.00,2013-07-07 19:51:00,
2013-07-07 15:56:00,75.6,69.7,30.09,SSW,207,0.0,6.0,82,0.00,,---,0.06,VWS V14.00,2013-07-07 19:56:00,
2013-07-07 16:01:00,75.6,70.4,30.09,SSE,165,0.0,6.0,84,0.00,,---,0.06,VWS V14.00,2013-07-07 20:01:00,
2013-07-07 16:06:00,75.5,70.7,30.08,SSE,165,0.0,6.0,85,0.00,,---,0.06,VWS V14.00,2013-07-07 20:06:00,
2013-07-07 16:11:00,75.2,70.4,30.08,SW,216,0.0,3.0,85,0.00,,---,0.06,VWS V14.00,2013-07-07 20:11:00,
2013-07-07 16:16:00,74.9,68.7,30.08,SSW,200,1.0,6.0,81,0.00,,---,0.06,VWS V14.00,2013-07-07 20:16:00,
2013-07-07 16:21:00,74.6,68.8,30.08,South,184,3.0,7.0,82,0.00,,---,0.06,VWS V14.00,2013-07-07 20:21:00,
2013-07-07 16:26:00,74.5,68.3,30.08,South,173,0.0,7.0,81,0.00,,---,0.06,VWS V14.00,2013-07-07 20:26:00,
2013-07-07 16:31:00,74.5,68.3,30.07,South,173,0.0,7.0,81,0.00,,---,0.06,VWS V14.00,2013-07-07 20:31:00,
2013-07-07 16:36:00,74.5,68.3,30.07,South,174,0.0,7.0,81,0.00,,---,0.06,VWS V14.00,2013-07-07 20:36:00,
2013-07-07 16:41:00,74.5,68.7,30.07,SSE,157,1.0,3.0,82,0.00,,---,0.06,VWS V14.00,2013-07-07 20:41:00,
2013-07-07 16:46:00,74.6,69.4,30.07,South,182,0.0,3.0,84,0.00,,---,0.06,VWS V14.00,2013-07-07 20:46:00,
2013-07-07 16:51:00,74.6,69.4,30.07,South,182,0.0,3.0,84,0.00,,---,0.06,VWS V14.00,2013-07-07 20:51:00,
2013-07-07 16:56:00,74.6,69.4,30.08,South,182,0.0,3.0,84,0.00,,---,0.06,VWS V14.00,2013-07-07 20:56:00,
2013-07-07 17:01:00,74.6,69.1,30.08,SSE,161,0.0,4.0,83,0.00,,---,0.06,VWS V14.00,2013-07-07 21:01:00,
2013-07-07 17:06:00,74.7,70.2,30.08,SW,217,0.0,4.0,86,0.00,,---,0.06,VWS V14.00,2013-07-07 21:06:00,
2013-07-07 17:11:00,74.7,69.9,30.07,SSE,157,0.0,3.0,85,0.00,,---,0.06,VWS V14.00,2013-07-07 21:11:00,
2013-07-07 17:16:00,74.7,70.2,30.08,SSE,156,0.0,3.0,86,0.00,,---,0.06,VWS V14.00,2013-07-07 21:16:00,
2013-07-07 17:21:00,74.6,70.1,30.08,SSE,157,0.0,3.0,86,0.00,,---,0.06,VWS V14.00,2013-07-07 21:21:00,
2013-07-07 17:26:00,74.6,69.8,30.08,South,176,0.0,3.0,85,0.00,,---,0.06,VWS V14.00,2013-07-07 21:26:00,
2013-07-07 17:31:00,74.6,69.4,30.07,SSW,206,0.0,3.0,84,0.00,,---,0.06,VWS V14.00,2013-07-07 21:31:00,
2013-07-07 17:36:00,74.7,69.9,30.07,SSE,159,0.0,3.0,85,0.00,,---,0.06,VWS V14.00,2013-07-07 21:36:00,
2013-07-07 17:41:00,74.9,70.1,30.07,SE,127,0.0,5.0,85,0.00,,---,0.06,VWS V14.00,2013-07-07 21:41:00,
2013-07-07 17:46:00,74.7,68.1,30.07,WSW,240,0.0,5.0,80,0.00,,---,0.06,VWS V14.00,2013-07-07 21:46:00,
2013-07-07 17:51:00,74.7,68.5,30.07,WSW,240,1.0,5.0,81,0.00,,---,0.06,VWS V14.00,2013-07-07 21:51:00,
2013-07-07 17:56:00,74.6,67.7,30.07,NW,313,0.0,5.0,79,0.00,,---,0.06,VWS V14.00,2013-07-07 21:56:00,
2013-07-07 18:01:00,74.3,68.1,30.08,SSE,156,0.0,5.0,81,0.00,,---,0.06,VWS V14.00,2013-07-07 22:01:00,
2013-07-07 18:06:00,74.2,68.4,30.08,SSE,156,0.0,5.0,82,0.00,,---,0.06,VWS V14.00,2013-07-07 22:06:00,
2013-07-07 18:11:00,74.0,67.8,30.08,SSW,210,0.0,4.0,81,0.00,,---,0.06,VWS V14.00,2013-07-07 22:11:00,
2013-07-07 18:16:00,74.0,68.5,30.07,West,281,0.0,4.0,83,0.00,,---,0.06,VWS V14.00,2013-07-07 22:16:00,
2013-07-07 18:21:00,73.9,67.7,30.08,West,281,0.0,4.0,81,0.00,,---,0.06,VWS V14.00,2013-07-07 22:21:00,
2013-07-07 18:26:00,73.7,67.9,30.07,NNE,28,0.0,5.0,82,0.00,,---,0.06,VWS V14.00,2013-07-07 22:26:00,
2013-07-07 18:31:00,73.5,68.4,30.08,NNE,28,0.0,5.0,84,0.00,,---,0.06,VWS V14.00,2013-07-07 22:31:00,
2013-07-07 18:36:00,73.2,68.1,30.07,NNE,28,0.0,5.0,84,0.00,,---,0.06,VWS V14.00,2013-07-07 22:36:00,
2013-07-07 18:41:00,73.0,68.2,30.07,NNE,28,0.0,0.0,85,0.00,,---,0.06,VWS V14.00,2013-07-07 22:41:00,
2013-07-07 18:46:00,72.8,68.4,30.07,NNE,28,1.0,1.0,86,0.00,,---,0.06,VWS V14.00,2013-07-07 22:46:00,
2013-07-07 18:51:00,72.5,68.1,30.08,NNE,28,0.0,2.0,86,0.00,,---,0.06,VWS V14.00,2013-07-07 22:51:00,
2013-07-07 18:56:00,72.2,67.8,30.08,NNE,28,0.0,2.0,86,0.00,,---,0.06,VWS V14.00,2013-07-07 22:56:00,
2013-07-07 19:01:00,72.0,67.9,30.08,NNE,31,0.0,2.0,87,0.00,,---,0.06,VWS V14.00,2013-07-07 23:01:00,
2013-07-07 19:06:00,71.9,68.5,30.08,NNE,28,0.0,2.0,89,0.00,,---,0.06,VWS V14.00,2013-07-07 23:06:00,
2013-07-07 19:11:00,71.8,68.4,30.08,NNE,28,0.0,0.0,89,0.00,,---,0.06,VWS V14.00,2013-07-07 23:11:00,
2013-07-07 19:16:00,71.8,68.4,30.08,NNE,28,0.0,0.0,89,0.00,,---,0.06,VWS V14.00,2013-07-07 23:16:00,
2013-07-07 19:21:00,71.8,68.7,30.08,NNE,28,0.0,0.0,90,0.00,,---,0.06,VWS V14.00,2013-07-07 23:21:00,
2013-07-07 19:26:00,71.7,68.6,30.08,NNE,28,0.0,0.0,90,0.00,,---,0.06,VWS V14.00,2013-07-07 23:26:00,
2013-07-07 19:31:00,71.7,68.6,30.08,NNE,28,0.0,0.0,90,0.00,,---,0.06,VWS V14.00,2013-07-07 23:31:00,
2013-07-07 19:36:00,71.6,68.8,30.09,NNE,28,0.0,0.0,91,0.00,,---,0.06,VWS V14.00,2013-07-07 23:36:00,
2013-07-07 19:41:00,71.5,68.7,30.09,NNW,340,0.0,3.0,91,0.00,,---,0.06,VWS V14.00,2013-07-07 23:41:00,
2013-07-07 19:46:00,71.4,69.0,30.09,NNW,340,0.0,3.0,92,0.00,,---,0.06,VWS V14.00,2013-07-07 23:46:00,
2013-07-07 19:51:00,71.3,68.9,30.09,NNW,340,0.0,3.0,92,0.00,,---,0.06,VWS V14.00,2013-07-07 23:51:00,
2013-07-07 19:56:00,71.1,68.7,30.09,NNW,347,0.0,3.0,92,0.00,,---,0.06,VWS V14.00,2013-07-07 23:56:00,
2013-07-07 20:01:00,70.8,68.4,30.09,NW,312,0.0,3.0,92,0.01,,---,0.07,VWS V14.00,2013-07-08 00:01:00,
2013-07-07 20:06:00,70.6,68.5,30.09,North,355,0.0,3.0,93,0.03,,---,0.09,VWS V14.00,2013-07-08 00:06:00,
2013-07-07 20:11:00,70.4,68.3,30.10,North,355,0.0,0.0,93,0.04,,---,0.10,VWS V14.00,2013-07-08 00:11:00,
2013-07-07 20:16:00,70.3,68.2,30.10,North,355,0.0,0.0,93,0.05,,---,0.11,VWS V14.00,2013-07-08 00:16:00,
2013-07-07 20:21:00,70.2,68.1,30.10,North,355,0.0,0.0,93,0.06,,---,0.12,VWS V14.00,2013-07-08 00:21:00,
2013-07-07 20:26:00,70.1,68.3,30.11,East,92,3.0,3.0,94,0.07,,---,0.13,VWS V14.00,2013-07-08 00:26:00,
2013-07-07 20:31:00,69.9,68.1,30.11,East,91,0.0,3.0,94,0.07,,---,0.13,VWS V14.00,2013-07-08 00:31:00,
2013-07-07 20:36:00,69.8,68.0,30.11,East,92,0.0,3.0,94,0.07,,---,0.13,VWS V14.00,2013-07-08 00:36:00,
2013-07-07 20:41:00,69.7,68.2,30.11,East,92,0.0,0.0,95,0.09,,---,0.15,VWS V14.00,2013-07-08 00:41:00,
2013-07-07 20:46:00,69.5,68.0,30.11,East,92,0.0,0.0,95,0.09,,---,0.15,VWS V14.00,2013-07-08 00:46:00,
2013-07-07 20:51:00,69.5,68.0,30.12,East,91,0.0,0.0,95,0.09,,---,0.15,VWS V14.00,2013-07-08 00:51:00,
2013-07-07 20:56:00,69.4,67.9,30.11,East,91,0.0,0.0,95,0.09,,---,0.15,VWS V14.00,2013-07-08 00:56:00,
2013-07-07 21:01:00,69.4,68.2,30.11,East,92,0.0,0.0,96,0.10,,---,0.16,VWS V14.00,2013-07-08 01:01:00,
2013-07-07 21:06:00,69.3,68.1,30.12,East,92,0.0,0.0,96,0.11,,---,0.17,VWS V14.00,2013-07-08 01:06:00,
2013-07-07 21:11:00,69.2,68.0,30.11,East,91,0.0,0.0,96,0.08,,---,0.17,VWS V14.00,2013-07-08 01:11:00,
2013-07-07 21:16:00,69.0,67.8,30.11,East,91,0.0,0.0,96,0.08,,---,0.17,VWS V14.00,2013-07-08 01:16:00,
2013-07-07 21:21:00,68.9,67.7,30.11,East,91,0.0,0.0,96,0.09,,---,0.18,VWS V14.00,2013-07-08 01:21:00,
2013-07-07 21:26:00,68.9,67.7,30.11,East,92,0.0,0.0,96,0.09,,---,0.18,VWS V14.00,2013-07-08 01:26:00,
2013-07-07 21:31:00,68.8,67.6,30.12,East,91,0.0,0.0,96,0.09,,---,0.18,VWS V14.00,2013-07-08 01:31:00,
2013-07-07 21:36:00,68.7,67.5,30.12,East,92,0.0,0.0,96,0.09,,---,0.18,VWS V14.00,2013-07-08 01:36:00,
2013-07-07 21:41:00,68.7,67.5,30.11,East,91,0.0,0.0,96,0.04,,---,0.18,VWS V14.00,2013-07-08 01:41:00,
2013-07-07 21:46:00,68.6,67.4,30.11,East,92,0.0,0.0,96,0.04,,---,0.18,VWS V14.00,2013-07-08 01:46:00,
2013-07-07 21:51:00,68.5,67.6,30.12,East,92,0.0,0.0,97,0.04,,---,0.18,VWS V14.00,2013-07-08 01:51:00,
2013-07-07 21:56:00,68.4,67.5,30.13,East,91,0.0,0.0,97,0.04,,---,0.18,VWS V14.00,2013-07-08 01:56:00,
2013-07-07 22:01:00,68.3,67.4,30.14,East,91,0.0,0.0,97,0.04,,---,0.18,VWS V14.00,2013-07-08 02:01:00,
2013-07-07 22:06:00,68.3,67.4,30.14,East,92,0.0,0.0,97,0.04,,---,0.18,VWS V14.00,2013-07-08 02:06:00,
2013-07-07 22:11:00,68.2,67.3,30.14,East,92,0.0,0.0,97,0.01,,---,0.18,VWS V14.00,2013-07-08 02:11:00,
2013-07-07 22:16:00,68.1,67.2,30.14,East,92,0.0,0.0,97,0.01,,---,0.18,VWS V14.00,2013-07-08 02:16:00,
2013-07-07 22:21:00,68.0,67.1,30.14,East,91,0.0,0.0,97,0.01,,---,0.18,VWS V14.00,2013-07-08 02:21:00,
2013-07-07 22:26:00,68.0,67.1,30.15,East,92,0.0,0.0,97,0.01,,---,0.18,VWS V14.00,2013-07-08 02:26:00,
2013-07-07 22:31:00,67.9,67.0,30.15,East,92,0.0,0.0,97,0.01,,---,0.18,VWS V14.00,2013-07-08 02:31:00,
2013-07-07 22:36:00,67.9,67.0,30.15,East,92,0.0,0.0,97,0.01,,---,0.18,VWS V14.00,2013-07-08 02:36:00,
2013-07-07 22:41:00,67.9,67.0,30.15,East,92,0.0,0.0,97,0.00,,---,0.18,VWS V14.00,2013-07-08 02:41:00,
2013-07-07 22:46:00,67.9,67.0,30.15,East,92,0.0,0.0,97,0.00,,---,0.18,VWS V14.00,2013-07-08 02:46:00,
2013-07-07 22:51:00,67.9,67.0,30.15,East,92,0.0,0.0,97,0.00,,---,0.18,VWS V14.00,2013-07-08 02:51:00,
2013-07-07 22:56:00,67.8,66.9,30.15,East,92,0.0,0.0,97,0.00,,---,0.18,VWS V14.00,2013-07-08 02:56:00,
2013-07-07 23:01:00,67.8,66.9,30.15,East,91,0.0,0.0,97,0.00,,---,0.18,VWS V14.00,2013-07-08 03:01:00,
2013-07-07 23:06:00,67.8,66.9,30.15,East,92,0.0,0.0,97,0.00,,---,0.18,VWS V14.00,2013-07-08 03:06:00,
2013-07-07 23:11:00,67.8,66.9,30.15,East,91,0.0,0.0,97,0.00,,---,0.18,VWS V14.00,2013-07-08 03:11:00,
2013-07-07 23:16:00,67.7,66.8,30.15,East,92,0.0,0.0,97,0.00,,---,0.18,VWS V14.00,2013-07-08 03:16:00,
2013-07-07 23:21:00,67.7,66.8,30.15,East,91,0.0,0.0,97,0.00,,---,0.18,VWS V14.00,2013-07-08 03:21:00,
2013-07-07 23:26:00,67.7,66.8,30.15,East,91,0.0,0.0,97,0.00,,---,0.18,VWS V14.00,2013-07-08 03:26:00,
2013-07-07 23:31:00,67.7,67.1,30.15,East,91,0.0,0.0,98,0.00,,---,0.18,VWS V14.00,2013-07-08 03:31:00,
2013-07-07 23:36:00,67.8,67.2,30.15,East,92,0.0,0.0,98,0.00,,---,0.18,VWS V14.00,2013-07-08 03:36:00,
2013-07-07 23:41:00,67.8,67.2,30.15,East,91,0.0,0.0,98,0.00,,---,0.18,VWS V14.00,2013-07-08 03:41:00,
2013-07-07 23:46:00,67.7,67.1,30.15,East,91,0.0,0.0,98,0.00,,---,0.18,VWS V14.00,2013-07-08 03:46:00,
2013-07-07 23:51:00,67.7,67.1,30.15,East,92,0.0,0.0,98,0.00,,---,0.18,VWS V14.00,2013-07-08 03:51:00,
2013-07-07 23:56:00,67.6,67.0,30.15,East,92,0.0,0.0,98,0.00,,---,0.18,VWS V14.00,2013-07-08 03:56:00,